Moody AFB, GA

3:42 PM EST on February 20, 2017 (GMT -0500)
Moody Air Force Base

Weather History for KVAD - November, 2012

Change the Weather History Date:

Tuesday, November 6, 2012

  Actual Average Record
Temperature  
Mean Temperature 60 °F -  
Max Temperature 69 °F 71 °F 84 °F (2003)
Min Temperature 50 °F 51 °F 36 °F (2010)
Degree Days  
Heating Degree Days 5    
Growing Degree Days 10 (Base 50)    
Moisture  
Dew Point 52 °F    
Average Humidity 85    
Maximum Humidity 100    
Minimum Humidity 50    
Precipitation  
Precipitation 0.28 in - - ()
Sea Level Pressure  
Sea Level Pressure 29.91 in    
Wind  
Wind Speed 8 mph (SSE)    
Max Wind Speed 14 mph    
Max Gust Speed 18 mph    
Visibility 10 miles    
Events Rain    
Averages and records for this station are not official NWS values.
T = Trace of Precipitation, MM = Missing Value Source: NWS Daily Summary

Daily Weather History Graph

Daily Weather History Graph

Search for Another Location

Airport or City:

Trip Planner

Search our weather history database for the weather conditions in past years. The results will help you decide how hot, cold, wet, or windy it might be!

Date:

Astronomy

Nov. 06, 2012 Rise Set
Actual Time 6:52 AM EST 5:40 PM EST
Civil Twilight 6:27 AM EST 6:05 PM EST
Nautical Twilight 5:58 AM EST 6:34 PM EST
Astronomical Twilight 5:29 AM EST 7:02 PM EST
Moon No Moon Rise 12:47 PM EST (11/6)
Length of Visible Light 11h 38m
Length of Day
10h 47m
Waning Gibbous, 53% of the Moon is Illuminated
Nov 6
Waning Gibbous
Nov 6
Last Quarter
Nov 13
New
Nov 20
First Quarter
Nov 28
Full

Hourly Weather History & Observations

Time (EST) Temp. Dew Point Humidity Pressure Visibility Wind Dir Wind Speed Gust Speed Precip Events Conditions
12:23 AM 55.4 °F 51.8 °F 88% 29.97 in 10.0 mi ESE 8.1 mph - N/A Rain Light Rain
12:42 AM 55.4 °F 51.8 °F 88% 29.96 in 10.0 mi East 8.1 mph - N/A   Mostly Cloudy
12:52 AM 55.4 °F 51.8 °F 88% 29.95 in 10.0 mi East 8.1 mph - N/A Rain Light Rain
12:55 AM 54.7 °F 52.3 °F 92% 29.95 in 10.0 mi ESE 5.8 mph - 0.00 in Rain Light Rain
1:01 AM 55.4 °F 51.8 °F 88% 29.95 in 10.0 mi East 4.6 mph - N/A   Mostly Cloudy
1:07 AM 55.4 °F 51.8 °F 88% 29.95 in 10.0 mi East 5.8 mph - N/A Rain Light Rain
1:39 AM 55.4 °F 51.8 °F 88% 29.93 in 10.0 mi SSE 6.9 mph - N/A   Overcast
1:50 AM 55.4 °F 51.8 °F 88% 29.93 in 10.0 mi SE 6.9 mph - N/A Rain Light Rain
1:55 AM 54.7 °F 52.3 °F 92% 29.92 in 10.0 mi ESE 9.2 mph - 0.01 in Rain Light Rain
2:32 AM 53.6 °F 51.8 °F 94% 29.89 in 10.0 mi ESE 9.2 mph - N/A   Overcast
2:54 AM 53.6 °F 53.6 °F 100% 29.88 in 10.0 mi ESE 10.4 mph - N/A Rain Light Rain
2:55 AM 54.3 °F 52.9 °F 95% 29.88 in 10.0 mi ESE 9.2 mph - 0.01 in Rain Light Rain
3:27 AM 55.4 °F 53.6 °F 94% 29.94 in 10.0 mi Variable 3.5 mph - N/A Rain Rain
3:53 AM 55.4 °F 53.6 °F 94% 29.98 in 10.0 mi WNW 5.8 mph - N/A Rain Rain
3:55 AM 54.9 °F 54.3 °F 98% 29.98 in 10.0 mi WNW 3.5 mph - 0.13 in Rain Rain
4:55 AM 55.2 °F 54.9 °F 99% 29.96 in 10.0 mi SSE 6.9 mph - 0.11 in Rain Light Rain
5:52 AM 55.4 °F 55.4 °F 100% 29.91 in 10.0 mi SE 10.4 mph - N/A   Mostly Cloudy
5:55 AM 55.0 °F 54.7 °F 99% 29.91 in 10.0 mi SSE 10.4 mph - 0.02 in   Mostly Cloudy
6:09 AM 55.4 °F 55.4 °F 100% 29.88 in 10.0 mi SE 13.8 mph - N/A Rain Light Rain
6:31 AM 55.4 °F 53.6 °F 94% 29.89 in 10.0 mi South 8.1 mph - N/A   Scattered Clouds
6:35 AM 55.4 °F 53.6 °F 94% 29.88 in 10.0 mi South 8.1 mph - N/A Rain Light Rain
6:40 AM 55.4 °F 53.6 °F 94% 29.89 in 10.0 mi South 6.9 mph - N/A   Mostly Cloudy
6:51 AM 55.4 °F 53.6 °F 94% 29.88 in 10.0 mi South 4.6 mph - N/A Rain Light Rain
6:55 AM 54.7 °F 52.7 °F 93% 29.88 in 10.0 mi SW 4.6 mph - 0.00 in Rain Light Rain
7:00 AM 53.6 °F 51.8 °F 94% 29.88 in 10.0 mi South 5.8 mph - N/A   Mostly Cloudy
7:55 AM 54.5 °F 52.9 °F 94% 29.91 in 10.0 mi SW 3.5 mph - 0.00 in   Overcast
8:55 AM 58.1 °F 53.4 °F 84% 29.92 in 10.0 mi Calm Calm - N/A   Partly Cloudy
9:55 AM 60.8 °F 53.8 °F 78% 29.93 in 10.0 mi West 4.6 mph - N/A   Partly Cloudy
10:55 AM 63.3 °F 51.8 °F 66% 29.93 in 10.0 mi West 6.9 mph - N/A   Mostly Cloudy
11:55 AM 67.5 °F 52.5 °F 59% 29.89 in 10.0 mi West 8.1 mph - N/A   Clear
12:55 PM 66.9 °F 51.8 °F 58% 29.87 in 10.0 mi WSW 6.9 mph 18.4 mph N/A   Scattered Clouds
1:55 PM 69.6 °F 50.9 °F 51% 29.85 in 10.0 mi West 6.9 mph - N/A   Mostly Cloudy
2:55 PM 69.4 °F 50.7 °F 51% 29.83 in 10.0 mi West 9.2 mph - N/A   Clear
3:55 PM 67.6 °F 48.6 °F 50% 29.83 in 10.0 mi WNW 8.1 mph - N/A   Clear
4:55 PM 63.7 °F 49.8 °F 61% 29.85 in 10.0 mi NW 12.7 mph - N/A   Clear
5:55 PM 59.5 °F 52.3 °F 77% 29.88 in 10.0 mi North 11.5 mph - N/A   Mostly Cloudy
6:55 PM 54.1 °F 49.6 °F 85% 29.93 in 10.0 mi North 11.5 mph - N/A   Mostly Cloudy
7:24 PM 53.6 °F 50.0 °F 88% 29.94 in 10.0 mi NNE 13.8 mph - N/A   Mostly Cloudy
7:55 PM 53.1 °F 48.9 °F 86% 29.93 in 10.0 mi North 9.2 mph - N/A   Overcast
8:55 PM 52.0 °F 47.7 °F 85% 29.93 in 10.0 mi NNE 9.2 mph - N/A   Overcast
9:55 PM 51.8 °F 47.1 °F 84% 29.95 in 10.0 mi North 9.2 mph - N/A   Overcast
10:55 PM 51.3 °F 46.8 °F 85% 29.95 in 10.0 mi North 9.2 mph - N/A   Overcast
11:55 PM 50.5 °F 45.7 °F 83% 29.94 in 10.0 mi NNE 5.8 mph - N/A   Overcast